CW6421 Weather Reports


Display with metric or nautical units.
time (UTC)temp
F
wind
direction
speed
MPH
gust
MPH
rain 1hr
in
rain 24hr
in
rain mn
in
humidity
%
barometer
mb
20260510123528 71 215 3.0 18.0 0.00 0.00 0.00 51 1012.7
20260510122528 72 220 4.0 17.0 0.00 0.00 0.00 51 1012.7
20260510121529 71 273 5.0 16.0 0.00 0.00 0.00 52 1012.7
20260510120526 70 166 3.0 14.0 0.00 0.00 0.00 53 1013.3
20260510115527 68 174 4.0 15.0 0.00 0.00 0.00 53 1013.3
20260510114529 69 200 4.0 13.0 0.00 0.00 0.00 52 1013.3
20260510113526 71 186 4.0 15.0 0.00 0.00 0.00 52 1013.3
20260510112527 70 199 4.0 14.0 0.00 0.00 0.00 54 1013.3
20260510111529 70 178 7.0 15.0 0.00 0.00 0.00 54 1013.3
20260510110529 69 160 7.0 14.0 0.00 0.00 0.00 56 1013.9
20260510105527 69 171 6.0 15.0 0.00 0.00 0.00 53 1013.9
20260510103528 68 177 8.0 13.0 0.00 0.00 0.00 56 1013.9
20260510102526 67 174 9.0 12.0 0.00 0.00 0.00 57 1013.9
20260510100527 65 154 9.0 12.0 0.00 0.00 0.00 60 1014.7
20260510095526 65 147 8.0 12.0 0.00 0.00 0.00 59 1014.7
20260510093527 64 160 4.0 12.0 0.00 0.00 0.00 61 1014.7
20260510092527 63 177 3.0 12.0 0.00 0.00 0.00 62 1014.7
20260510091529 63 179 4.0 13.0 0.00 0.00 0.00 64 1014.7
20260510090528 61 162 4.0 14.0 0.00 0.00 0.00 65 1015.1
20260510085527 61 170 2.0 14.0 0.00 0.00 0.00 65 1015.1
20260510082527 59 177 8.0 14.0 0.00 0.00 0.00 69 1015.1
20260510081530 58 159 10.0 15.0 0.00 0.00 0.00 69 1015.1
20260510080526 58 163 10.0 12.0 0.00 0.00 0.00 70 1015.7
20260510075527 58 160 9.0 10.0 0.00 0.00 0.00 71 1015.7
20260510074530 57 134 8.0 10.0 0.00 0.00 0.00 72 1015.7
20260510073528 56 141 8.0 8.0 0.00 0.00 0.00 72 1015.7
20260510072525 56 147 8.0 10.0 0.00 0.00 0.00 74 1015.7
20260510071530 55 136 8.0 10.0 0.00 0.00 0.00 75 1015.7
20260510070528 54 134 6.0 8.0 0.00 0.00 0.00 77 1016.1
20260510065526 54 145 7.0 10.0 0.00 0.00 0.00 78 1016.1
20260510063528 53 112 2.0 8.0 0.00 0.00 0.00 79 1016.1
20260510062527 52 128 3.0 8.0 0.00 0.00 0.00 79 1016.1
20260510061531 51 133 6.0 8.0 0.00 0.00 0.00 80 1016.1
20260510055525 50 136 5.0 7.0 0.00 0.00 0.00 81 1016.1
20260510054529 50 118 6.0 7.0 0.00 0.00 0.00 81 1016.1
20260510053527 49 103 6.0 8.0 0.00 0.00 0.00 82 1016.1
20260510051529 49 102 6.0 8.0 0.00 0.00 0.00 83 1016.1
20260510050528 48 100 6.0 8.0 0.00 0.00 0.00 83 1016.6
20260510045526 48 102 6.0 6.0 0.00 0.00 0.00 83 1016.6
20260510044530 48 85 3.0 6.0 0.00 0.00 0.00 83 1016.6
20260510043526 48 89 2.0 5.0 0.00 0.00 0.00 83 1016.6
20260510042528 48 77 3.0 5.0 0.00 0.00 0.00 83 1016.6
20260510040526 48 105 3.0 8.0 0.00 0.00 0.00 82 1016.6
20260510034529 47 79 2.0 8.0 0.00 0.00 0.00 82 1016.6
20260510033526 47 80 2.0 8.0 0.00 0.00 0.00 81 1016.6
20260510032527 48 71 2.0 8.0 0.00 0.00 0.00 81 1016.6
20260510031528 48 110 2.0 7.0 0.00 0.00 0.00 81 1016.6
20260510030529 48 124 3.0 7.0 0.00 0.00 0.00 80 1017.2
20260510025526 48 128 3.0 7.0 0.00 0.00 0.00 80 1017.2
20260510024528 48 130 4.0 7.0 0.00 0.00 0.00 80 1017.2
20260510022526 48 120 6.0 6.0 0.00 0.00 0.00 80 1017.2
20260510021529 49 97 4.0 8.0 0.00 0.00 0.00 80 1017.2
20260510020527 49 99 5.0 6.0 0.00 0.00 0.00 79 1017.9
20260510015527 49 110 6.0 6.0 0.00 0.00 0.00 79 1017.9
20260510014529 49 101 4.0 6.0 0.00 0.00 0.00 79 1017.9
20260510013526 49 99 6.0 6.0 0.00 0.00 0.00 79 1017.9
20260510004529 49 93 5.0 6.0 0.00 0.00 0.00 78 1018.7
20260510003527 50 106 6.0 7.0 0.00 0.00 0.00 78 1018.7
20260510002528 50 103 6.0 7.0 0.00 0.00 0.00 77 1018.7
20260510001529 50 110 3.0 4.0 0.00 0.00 0.00 77 1018.7
20260510000528 50 108 3.0 5.0 0.00 0.00 0.00 77 1019.1
20260509235538 50 92 4.0 5.0 0.00 0.00 0.00 77 1019.1
20260509233526 50 91 3.0 5.0 0.00 0.00 0.00 76 1019.1
20260509231529 51 97 3.0 5.0 0.00 0.00 0.00 75 1019.1
20260509230528 51 92 3.0 6.0 0.00 0.00 0.00 74 1019.4
20260509225526 51 100 3.0 5.0 0.00 0.00 0.00 74 1019.4
20260509224528 51 82 3.0 6.0 0.00 0.00 0.00 73 1019.4
20260509223527 51 86 2.0 6.0 0.00 0.00 0.00 73 1019.4
20260509221531 52 92 5.0 6.0 0.00 0.00 0.00 73 1019.4
20260509220528 52 92 4.0 5.0 0.00 0.00 0.00 72 1019.6
20260509215527 52 85 4.0 5.0 0.00 0.00 0.00 72 1019.6
20260509213526 53 108 2.0 5.0 0.00 0.00 0.00 71 1019.6
20260509212527 53 119 2.0 5.0 0.00 0.00 0.00 71 1019.6
20260509211530 53 90 2.0 5.0 0.00 0.00 0.00 70 1019.6
20260509210528 53 99 1.0 8.0 0.00 0.00 0.00 69 1019.3
20260509205526 53 97 2.0 9.0 0.00 0.00 0.00 69 1019.3
20260509204529 54 108 3.0 9.0 0.00 0.00 0.00 68 1019.3
20260509203527 54 112 5.0 10.0 0.00 0.00 0.00 68 1019.3
20260509202527 54 112 2.0 9.0 0.00 0.00 0.00 67 1019.3
20260509201530 54 138 4.0 9.0 0.00 0.00 0.00 67 1019.3
20260509200528 55 140 4.0 10.0 0.00 0.00 0.00 66 1019.0
20260509195526 55 124 4.0 9.0 0.00 0.00 0.00 65 1019.0
20260509194530 55 117 6.0 8.0 0.00 0.00 0.00 65 1019.0
20260509193527 56 115 4.0 8.0 0.00 0.00 0.00 64 1019.0
20260509192526 56 120 4.0 10.0 0.00 0.00 0.00 63 1019.0
20260509191530 57 110 4.0 9.0 0.00 0.00 0.00 62 1019.0
20260509190528 57 126 3.0 11.0 0.00 0.00 0.00 61 1018.9
20260509185527 58 122 3.0 11.0 0.00 0.00 0.00 60 1018.9
20260509184528 58 145 5.0 11.0 0.00 0.00 0.00 60 1018.9
20260509183526 58 131 3.0 10.0 0.00 0.00 0.00 59 1018.9
20260509181529 59 133 9.0 11.0 0.00 0.00 0.00 58 1018.9
20260509180528 60 131 8.0 12.0 0.00 0.00 0.00 58 1019.2
20260509175527 60 131 8.0 10.0 0.00 0.00 0.00 57 1019.2
20260509173527 60 77 6.0 10.0 0.00 0.00 0.00 56 1019.2
20260509172527 60 70 5.0 12.0 0.00 0.00 0.00 56 1019.2
20260509171531 61 88 7.0 10.0 0.00 0.00 0.00 56 1019.2
20260509170528 61 80 6.0 11.0 0.00 0.00 0.00 56 1019.8
20260509165526 61 86 7.0 12.0 0.00 0.00 0.00 55 1019.8
20260509164530 61 88 7.0 12.0 0.00 0.00 0.00 55 1019.8
20260509163527 62 85 8.0 11.0 0.00 0.00 0.00 55 1019.8
20260509161530 62 85 8.0 12.0 0.00 0.00 0.00 56 1019.8
20260509160528 62 70 9.0 10.0 0.00 0.00 0.00 56 1020.1
20260509155528 62 72 8.0 10.0 0.00 0.00 0.00 56 1020.1
20260509154530 62 161 3.0 8.0 0.00 0.00 0.00 56 1020.1
20260509153526 62 177 4.0 7.0 0.00 0.00 0.00 56 1020.1
20260509152526 62 174 5.0 8.0 0.00 0.00 0.00 56 1020.1
20260509151530 62 123 3.0 8.0 0.00 0.00 0.00 56 1020.1
20260509150528 62 124 4.0 11.0 0.00 0.00 0.00 56 1020.4
20260509145528 62 136 4.0 11.0 0.00 0.01 0.00 56 1020.4
20260509143528 62 62 6.0 12.0 0.00 0.01 0.00 55 1020.4
20260509142527 62 69 5.0 10.0 0.00 0.01 0.00 55 1020.4
20260509141530 62 64 5.0 11.0 0.00 0.01 0.00 55 1020.4
20260509135527 62 60 5.0 9.0 0.00 0.01 0.00 55 1020.8
20260509134529 62 241 4.0 8.0 0.00 0.01 0.00 55 1020.8
20260509133527 62 248 4.0 7.0 0.00 0.01 0.00 55 1020.8
20260509132527 63 255 4.0 8.0 0.00 0.01 0.00 54 1020.8
20260509131530 63 331 5.0 8.0 0.00 0.01 0.00 54 1020.8
20260509130527 63 79 5.0 12.0 0.00 0.01 0.00 54 1021.2
20260509125528 63 60 4.0 12.0 0.00 0.01 0.00 55 1021.2
20260509124531 63 69 3.0 12.0 0.00 0.01 0.00 55 1021.2